Overview Statistics Trail Chart Weather Telemetry Raw packets
 

This is the latest recevied weather packets stored in our database for station/object KI6SYE. If no packets are shown the sender has not sent any weather packets the latest 10 day(s).

<< 1 2 3 4 5 6 7 >>
Time Temp. Humidity Pressure Rain* Wind** Luminosity Snow
1788663263 22.22° C 86% 1011.9 hPa 0 mm - 0 W/m² -
1788662962 22.22° C 85% 1011.9 hPa 0 mm - 0 W/m² -
1788662661 22.22° C 85% 1011.8 hPa 0 mm - 0 W/m² -
1788662356 22.22° C 85% 1011.7 hPa 0 mm - 0 W/m² -
1788662053 22.22° C 85% 1011.9 hPa 0 mm - 0 W/m² -
1788661752 22.22° C 85% 1011.9 hPa 0 mm - 0 W/m² -
1788661448 22.22° C 86% 1011.8 hPa 0 mm - 1 W/m² -
1788661143 22.22° C 87% 1012 hPa 0 mm - 2 W/m² -
1788660843 22.78° C 87% 1011.9 hPa 0 mm - 3 W/m² -
1788660537 22.78° C 86% 1012.1 hPa 0 mm - 5 W/m² -
1788660237 22.78° C 86% 1012.1 hPa 0 mm - 9 W/m² -
1788659931 22.78° C 86% 1012 hPa 0 mm - 13 W/m² -
1788659631 22.78° C 86% 1012.1 hPa 0 mm - 16 W/m² -
1788659325 22.78° C 86% 1012 hPa 0 mm - 21 W/m² -
1788659024 22.78° C 85% 1012 hPa 0 mm - 27 W/m² -
1788658721 23.33° C 84% 1011.9 hPa 0 mm - 41 W/m² -
1788658416 23.33° C 83% 1011.8 hPa 0 mm - 52 W/m² -
1788658111 23.33° C 84% 1012.1 hPa 0 mm - 55 W/m² -
1788657807 22.78° C 84% 1012 hPa 0 mm - 60 W/m² -
1788657501 22.78° C 85% 1011.8 hPa 0 mm - 68 W/m² -
1788657196 23.33° C 84% 1011.8 hPa 0 mm - 48 W/m² -
1788656892 23.33° C 83% 1011.9 hPa 0 mm - 89 W/m² -
1788656588 23.89° C 82% 1012 hPa 0 mm - 75 W/m² -
1788656283 23.89° C 82% 1012 hPa 0 mm - 129 W/m² -
1788655982 23.89° C 81% 1012 hPa 0 mm - 139 W/m² -

* Rain latest hour (hover to see other rain measurements)
** Current wind speed in m/s (hover to see current wind gust speed)